When you browse on this site, cookies collect data to enhance your experience and personalize the content and advertising you see.
Visit our Privacy Policy to learn more. By continuing to use the site, you agree to this use of cookies and data.
  • en France
  • Liste des pays
  • À 7 jours
  • Température de l'eau
  • Carte satellitaire
  • Carte météo
  • Widgets météo
  • user-avatar
    Se connecter

    Météo par heure à Tebessa

    Ce jour, 24 Mars, Dimanche

    Heure Température Précipitation Vent Pression Humidité
    00:00 +8°C° 0 mm 1 m/s 688 mmHg 95%
    01:00 +7°C° 0 mm 1 m/s 688 mmHg 96%
    02:00 +7°C° 0 mm 1 m/s 688 mmHg 96%
    03:00 +7°C° 0 mm 1 m/s 687 mmHg 96%
    04:00 +6°C° 0 mm 1 m/s 687 mmHg 96%
    05:00 +6°C° 0 mm 1 m/s 687 mmHg 96%
    06:00 +6°C° 0 mm 1 m/s 688 mmHg 95%
    07:00 +6°C° 0 mm 1 m/s 688 mmHg 95%
    08:00 +8°C° 0 mm 1 m/s 688 mmHg 83%
    09:00 +10°C° 0 mm 1 m/s 689 mmHg 72%
    10:00 +12°C° 0 mm 1 m/s 689 mmHg 61%
    11:00 +13°C° 0 mm 1 m/s 689 mmHg 54%
    12:00 +14°C° 0 mm 1 m/s 689 mmHg 48%
    13:00 +14°C° 0 mm 0 m/s 689 mmHg 41%
    14:00 +15°C° 0 mm 0 m/s 689 mmHg 39%
    15:00 +16°C° 0 mm 1 m/s 689 mmHg 37%
    16:00 +18°C° 0 mm 1 m/s 689 mmHg 34%
    17:00 +16°C° 0 mm 1 m/s 689 mmHg 38%
    18:00 +15°C° 0 mm 1 m/s 688 mmHg 41%
    19:00 +15°C° 0 mm 2 m/s 688 mmHg 45%
    20:00 +14°C° 0 mm 2 m/s 688 mmHg 49%
    21:00 +13°C° 0 mm 2 m/s 688 mmHg 54%
    22:00 +11°C° 0 mm 3 m/s 688 mmHg 58%
    23:00 +11°C° 0 mm 3 m/s 688 mmHg 61%

    Demain, 25 Mars, Lundi

    Heure Température Précipitation Vent Pression Humidité
    00:00 +10°C° 0 mm 3 m/s 688 mmHg 64%
    01:00 +10°C° 0 mm 3 m/s 688 mmHg 67%
    02:00 +10°C° 0 mm 3 m/s 688 mmHg 68%
    03:00 +9°C° 0 mm 3 m/s 687 mmHg 69%
    04:00 +9°C° 0 mm 3 m/s 687 mmHg 70%
    05:00 +9°C° 0 mm 3 m/s 687 mmHg 70%
    06:00 +9°C° 0 mm 3 m/s 687 mmHg 70%
    07:00 +9°C° 0 mm 3 m/s 687 mmHg 70%
    08:00 +11°C° 0 mm 3 m/s 687 mmHg 63%
    09:00 +13°C° 0 mm 4 m/s 687 mmHg 56%
    10:00 +14°C° 0 mm 4 m/s 688 mmHg 48%
    11:00 +15°C° 0 mm 4 m/s 687 mmHg 44%
    12:00 +17°C° 0 mm 4 m/s 687 mmHg 40%
    13:00 +18°C° 0 mm 4 m/s 687 mmHg 36%
    14:00 +18°C° 0 mm 4 m/s 687 mmHg 36%
    15:00 +18°C° 0 mm 4 m/s 686 mmHg 36%
    16:00 +17°C° 0 mm 5 m/s 685 mmHg 35%
    17:00 +17°C° 0.2 mm 4 m/s 685 mmHg 43%
    18:00 +15°C° 0.2 mm 4 m/s 685 mmHg 52%
    19:00 +14°C° 0.2 mm 4 m/s 685 mmHg 60%
    20:00 +14°C° 0.3 mm 2 m/s 685 mmHg 65%
    21:00 +13°C° 0.3 mm 1 m/s 685 mmHg 70%
    22:00 +11°C° 0.3 mm 0 m/s 685 mmHg 76%
    23:00 +12°C° 0 mm 1 m/s 685 mmHg 75%

    Après-demain, 26 Mars, Mardi

    Heure Température Précipitation Vent Pression Humidité
    00:00 +12°C° 0 mm 1 m/s 685 mmHg 74%
    01:00 +11°C° 0 mm 1 m/s 684 mmHg 73%
    02:00 +11°C° 0 mm 1 m/s 684 mmHg 74%
    03:00 +11°C° 0 mm 1 m/s 684 mmHg 74%
    04:00 +9°C° 0 mm 2 m/s 683 mmHg 75%
    05:00 +10°C° 0 mm 1 m/s 683 mmHg 75%
    06:00 +10°C° 0 mm 1 m/s 683 mmHg 75%
    07:00 +10°C° 0 mm 1 m/s 683 mmHg 74%
    08:00 +12°C° 0 mm 2 m/s 684 mmHg 67%
    09:00 +14°C° 0 mm 2 m/s 684 mmHg 59%
    10:00 +15°C° 0 mm 2 m/s 685 mmHg 51%
    11:00 +16°C° 0 mm 3 m/s 685 mmHg 48%
    12:00 +17°C° 0 mm 4 m/s 685 mmHg 45%
    13:00 +17°C° 0 mm 5 m/s 685 mmHg 42%
    14:00 +17°C° 0.2 mm 6 m/s 685 mmHg 46%
    15:00 +16°C° 0.2 mm 6 m/s 684 mmHg 49%
    16:00 +16°C° 0.2 mm 7 m/s 684 mmHg 53%
    17:00 +14°C° 0.2 mm 6 m/s 684 mmHg 61%
    18:00 +13°C° 0.2 mm 5 m/s 684 mmHg 70%
    19:00 +12°C° 0.2 mm 5 m/s 684 mmHg 78%
    20:00 +11°C° 0.1 mm 4 m/s 684 mmHg 80%
    21:00 +10°C° 0.1 mm 4 m/s 684 mmHg 82%
    22:00 +8°C° 0.1 mm 4 m/s 685 mmHg 84%
    23:00 +8°C° 0 mm 4 m/s 685 mmHg 82%

    27 Mars, Mercredi

    Heure Température Précipitation Vent Pression Humidité
    00:00 +7°C° 0 mm 4 m/s 685 mmHg 81%
    01:00 +6°C° 0 mm 4 m/s 685 mmHg 79%
    02:00 +6°C° 0.5 mm 4 m/s 685 mmHg 78%
    03:00 +6°C° 0.5 mm 4 m/s 685 mmHg 77%
    04:00 +5°C° 0.5 mm 4 m/s 684 mmHg 76%
    05:00 +5°C° 0.2 mm 3 m/s 685 mmHg 74%
    06:00 +5°C° 0.2 mm 3 m/s 685 mmHg 73%
    07:00 +6°C° 0.2 mm 2 m/s 685 mmHg 71%
    08:00 +7°C° 0.1 mm 3 m/s 685 mmHg 69%
    09:00 +7°C° 0.1 mm 3 m/s 685 mmHg 68%
    10:00 +7°C° 0.1 mm 3 m/s 686 mmHg 67%
    11:00 +8°C° 0.3 mm 3 m/s 686 mmHg 66%
    12:00 +8°C° 0.3 mm 3 m/s 686 mmHg 65%
    13:00 +9°C° 0.3 mm 3 m/s 685 mmHg 64%
    14:00 +9°C° 0.7 mm 3 m/s 685 mmHg 66%
    15:00 +8°C° 0.7 mm 3 m/s 685 mmHg 68%
    16:00 +7°C° 0.7 mm 4 m/s 684 mmHg 70%
    17:00 +7°C° 0.3 mm 4 m/s 684 mmHg 74%
    18:00 +6°C° 0.3 mm 4 m/s 684 mmHg 78%
    19:00 +7°C° 0.3 mm 3 m/s 684 mmHg 82%
    20:00 +7°C° 0.2 mm 3 m/s 685 mmHg 83%
    21:00 +7°C° 0.2 mm 3 m/s 685 mmHg 85%
    22:00 +7°C° 0.2 mm 3 m/s 685 mmHg 87%
    23:00 +5°C° 0.1 mm 4 m/s 685 mmHg 88%

    28 Mars, Jeudi

    Heure Température Précipitation Vent Pression Humidité
    00:00 +5°C° 0.1 mm 4 m/s 685 mmHg 89%
    01:00 +5°C° 0.1 mm 4 m/s 685 mmHg 90%
    02:00 +5°C° 0 mm 4 m/s 684 mmHg 90%
    03:00 +5°C° 0 mm 4 m/s 684 mmHg 90%
    04:00 +5°C° 0 mm 4 m/s 684 mmHg 90%
    05:00 +5°C° 0.1 mm 5 m/s 685 mmHg 90%
    06:00 +5°C° 0.1 mm 5 m/s 685 mmHg 90%
    07:00 +5°C° 0.1 mm 5 m/s 685 mmHg 90%
    08:00 +5°C° 0.1 mm 5 m/s 685 mmHg 86%
    09:00 +6°C° 0.1 mm 5 m/s 686 mmHg 83%
    10:00 +6°C° 0.1 mm 5 m/s 686 mmHg 80%
    11:00 +7°C° 0 mm 6 m/s 686 mmHg 77%
    12:00 +8°C° 0 mm 6 m/s 686 mmHg 74%
    13:00 +8°C° 0 mm 7 m/s 686 mmHg 70%
    14:00 +9°C° 0.1 mm 7 m/s 686 mmHg 70%
    15:00 +9°C° 0.1 mm 7 m/s 685 mmHg 70%
    16:00 +9°C° 0.1 mm 8 m/s 685 mmHg 70%
    17:00 +8°C° 0.1 mm 7 m/s 686 mmHg 74%
    18:00 +8°C° 0.1 mm 7 m/s 686 mmHg 79%
    19:00 +7°C° 0.1 mm 6 m/s 686 mmHg 83%
    20:00 +7°C° 0 mm 5 m/s 687 mmHg 85%
    21:00 +6°C° 0 mm 5 m/s 687 mmHg 86%
    22:00 +6°C° 0 mm 4 m/s 688 mmHg 87%
    23:00 +6°C° 0 mm 4 m/s 688 mmHg 87%

    29 Mars, Vendredi

    Heure Température Précipitation Vent Pression Humidité
    00:00 +5°C° 0 mm 3 m/s 688 mmHg 87%
    01:00 +5°C° 0 mm 3 m/s 688 mmHg 87%
    02:00 +5°C° 0 mm 3 m/s 688 mmHg 89%
    03:00 +4°C° 0 mm 3 m/s 688 mmHg 91%
    04:00 +5°C° 0 mm 2 m/s 688 mmHg 92%
    05:00 +5°C° 0 mm 2 m/s 688 mmHg 93%
    06:00 +5°C° 0 mm 2 m/s 688 mmHg 93%
    07:00 +5°C° 0 mm 2 m/s 688 mmHg 94%
    08:00 +6°C° 0 mm 2 m/s 689 mmHg 84%
    09:00 +7°C° 0 mm 2 m/s 689 mmHg 74%
    10:00 +9°C° 0 mm 2 m/s 690 mmHg 64%
    11:00 +11°C° 0 mm 1 m/s 689 mmHg 58%
    12:00 +12°C° 0 mm 1 m/s 689 mmHg 52%
    13:00 +12°C° 0 mm 0 m/s 689 mmHg 46%
    14:00 +12°C° 0 mm 0 m/s 689 mmHg 44%
    15:00 +14°C° 0 mm 1 m/s 688 mmHg 42%
    16:00 +14°C° 0 mm 1 m/s 688 mmHg 40%
    17:00 +14°C° 0 mm 1 m/s 688 mmHg 42%
    18:00 +13°C° 0 mm 1 m/s 688 mmHg 44%
    19:00 +13°C° 0 mm 2 m/s 688 mmHg 46%
    20:00 +12°C° 0 mm 2 m/s 688 mmHg 52%
    21:00 +12°C° 0 mm 2 m/s 689 mmHg 57%
    22:00 +10°C° 0 mm 3 m/s 689 mmHg 62%
    23:00 +10°C° 0 mm 3 m/s 689 mmHg 66%
    Voir plus